TimeEST,TemperatureF,Dew PointF,Humidity,Sea Level PressureIn,VisibilityMPH,Wind Direction,Wind SpeedMPH,Gust SpeedMPH,PrecipitationIn,Events,Conditions,WindDirDegrees,DateUTC
12:53 AM,73.0,61.0,66,30.27,10.0,East,17.3,-,N/A,,Scattered Clouds,90,2013-01-28 05:53:00
1:53 AM,72.0,60.1,66,30.26,10.0,East,12.7,-,N/A,,Partly Cloudy,90,2013-01-28 06:53:00
2:53 AM,72.0,60.1,66,30.26,10.0,East,13.8,-,N/A,,Scattered Clouds,90,2013-01-28 07:53:00
3:53 AM,72.0,61.0,68,30.26,10.0,East,12.7,-,N/A,,Partly Cloudy,90,2013-01-28 08:53:00
4:53 AM,72.0,61.0,68,30.25,10.0,East,11.5,-,N/A,,Partly Cloudy,100,2013-01-28 09:53:00
5:53 AM,72.0,61.0,68,30.26,10.0,East,11.5,-,N/A,,Scattered Clouds,90,2013-01-28 10:53:00
6:53 AM,72.0,62.1,71,30.27,10.0,East,13.8,-,N/A,,Scattered Clouds,100,2013-01-28 11:53:00
7:53 AM,73.0,62.1,68,30.29,10.0,East,15.0,-,N/A,,Scattered Clouds,100,2013-01-28 12:53:00
8:53 AM,75.9,62.1,62,30.30,10.0,ESE,15.0,-,N/A,,Scattered Clouds,110,2013-01-28 13:53:00
9:53 AM,77.0,63.0,62,30.32,10.0,ESE,15.0,-,N/A,,Scattered Clouds,120,2013-01-28 14:53:00
10:53 AM,78.1,63.0,60,30.32,10.0,ESE,13.8,-,N/A,,Scattered Clouds,110,2013-01-28 15:53:00
11:53 AM,79.0,63.0,58,30.31,10.0,ESE,17.3,21.9,N/A,,Mostly Cloudy,110,2013-01-28 16:53:00
12:11 PM,80.6,62.6,54,30.30,10.0,SE,18.4,25.3,N/A,,Mostly Cloudy,130,2013-01-28 17:11:00
12:32 PM,80.6,62.6,54,30.30,10.0,SE,15.0,-,N/A,,Mostly Cloudy,140,2013-01-28 17:32:00
12:53 PM,80.1,62.1,54,30.28,10.0,ESE,15.0,21.9,N/A,,Scattered Clouds,120,2013-01-28 17:53:00
1:53 PM,80.1,62.1,54,30.25,10.0,ESE,16.1,-,N/A,,Scattered Clouds,110,2013-01-28 18:53:00
2:53 PM,78.1,62.1,58,30.25,10.0,ESE,13.8,-,N/A,,Mostly Cloudy,120,2013-01-28 19:53:00
3:53 PM,78.1,62.1,58,30.23,10.0,ESE,15.0,-,N/A,,Scattered Clouds,120,2013-01-28 20:53:00
4:53 PM,75.9,63.0,64,30.24,10.0,ESE,13.8,-,N/A,,Scattered Clouds,120,2013-01-28 21:53:00
5:53 PM,75.0,64.0,69,30.25,10.0,ESE,13.8,-,N/A,,Scattered Clouds,110,2013-01-28 22:53:00
6:53 PM,73.9,63.0,68,30.25,10.0,ESE,10.4,-,N/A,,Partly Cloudy,120,2013-01-28 23:53:00
7:53 PM,73.9,64.0,71,30.26,10.0,ESE,9.2,-,N/A,,Partly Cloudy,120,2013-01-29 00:53:00
8:53 PM,75.0,64.0,69,30.26,10.0,ESE,10.4,-,N/A,,Mostly Cloudy,110,2013-01-29 01:53:00
9:53 PM,75.0,66.0,73,30.26,10.0,East,13.8,-,N/A,,Mostly Cloudy,100,2013-01-29 02:53:00
10:53 PM,73.9,66.9,79,30.26,10.0,East,17.3,-,N/A,,Mostly Cloudy,100,2013-01-29 03:53:00
11:53 PM,73.9,64.9,73,30.24,10.0,ESE,11.5,-,N/A,,Mostly Cloudy,120,2013-01-29 04:53:00